Skip Page Navigation
NASA JPL Caltech
NASA Logo - Jet Propulsion Laboratory + View the NASA Portal
+ Near-Earth Object (NEO) Program
Search JPL
JPL Home Earth Solar System Stars & Galaxies Technology
JPL Solar System Dynamics
BODIES ORBITS EPHEMERIDES TOOLS PHYSICAL DATA DISCOVERY FAQ SITE MAP
JPL Small-Body Database Browser
Search: [ help ]  
164400 (2005 GN59)
Classification: Apollo [NEO, PHA]          SPK-ID: 2164400
Ephemeris | Orbit Diagram | Orbital Elements | Physical Parameters | Discovery Circumstances | Close-Approach Data ]

[ hide orbit diagram ]
Orbit Diagram
Note: Make sure you have Java enabled on your browser to see the applet. This applet is provided as a 3D orbit visualization tool. The applet was implemented using 2-body methods, and hence should not be used for determining accurate long-term trajectories (over several years or decades) or planetary encounter circumstances. For accurate long-term ephemerides, please instead use our Horizons system.
Orbit Viewer

Additional Notes: the orbits shown in the applet are color coded. The planets are white lines, and the asteroid/comet is a blue line. The bright white line indicates the portion of the orbit that is above the ecliptic plane, and the darker portion is below the ecliptic plane. Likewise for the asteroid/comet orbit, the light blue indicates the portion above the ecliptic plane, and the dark blue the portion below the ecliptic plane.

Orbit Viewer applet originally written and kindly provided by Osamu Ajiki (AstroArts), and further modified by Ron Baalke (JPL).


Orbital Elements at Epoch 2456400.5 (2013-Apr-18.0) TDB
Reference: JPL 112 (heliocentric ecliptic J2000)
 Element Value Uncertainty (1-sigma)   Units 
e .4679021749149264 2.7319e-08  
a 1.656406767723774 3.0755e-08 AU
q .881370438562017 4.7324e-08 AU
i 6.627510786231385 4.8393e-06 deg
node 219.0339072264516 4.13e-05 deg
peri 202.9221014987083 4.1431e-05 deg
M 28.30159940991622 2.0108e-05 deg
tp 2456339.285063963896
(2013-Feb-15.78506396)
4.1799e-05 JED
period 778.6618930545737
2.13
2.1687e-05
5.938e-08
d
yr
n .4623316014448505 1.2876e-08 deg/d
Q 2.431443096885531 4.5145e-08 AU
  Orbit Determination Parameters
   # obs. used (total)      637  
   # delay obs. used      0  
   # Doppler obs. used      2  
   data-arc span      12371 days (33.87 yr)  
   first obs. used      1978-08-24  
   last obs. used      2012-07-07  
   planetary ephem.      DE405  
   SB-pert. ephem.      SB405-CPV-2  
   condition code      0  
   fit RMS      .61634  
   data source      ORB  
   producer      Otto Matic  
   solution date      2013-Apr-29 15:40:04  

Additional Information
 Earth MOID = .0499894 AU 
 T_jup = 4.132 
[ show covariance matrix ]

Ephemeris | Orbit Diagram | Orbital Elements | Physical Parameters | Discovery Circumstances | Close-Approach Data ]

Physical Parameter Table
Parameter Symbol Value Units Sigma Reference Notes
absolute magnitude H 17.339 mag .54818 112 autocmod 2.5c
rotation period rot_per 38.69 h n/a Asteroid Lightcurve DataBase (Rev. 2013-May-01) Published Reference List:
[Vander Haagen, G.A. (2011) Minor Planet Bul. 38, 10.]
[Skiff, B.A.; Bowell, E.; Koehn, B.W.; Sanborn, J.J.; McLelland, K.P.; Warner, B.D. (2012) Minor Planet Bul. 39, 111-130.]

164400 (2005 GN59)          Discovered 2005-Apr-07 by Spacewatch at Kitt Peak (691)
Reference: 20070926/Numbers.arcLast Updated: 2007-09-30

[ show close-approach data ]
Ephemeris | Orbit Diagram | Orbital Elements | Physical Parameters | Discovery Circumstances | Close-Approach Data ]
ABOUT SSD CREDITS/AWARDS PRIVACY/COPYRIGHT GLOSSARY LINKS
FirstGov 2013-May-18 19:31 UT
(server date/time)  
NASA Home Page
Site Manager:   Donald K. Yeomans
Webmaster  Alan B. Chamberlin